| time (UTC) | temp F | wind direction | speed knots | gust knots | rain 1hr in | rain 24hr in | rain mn in | humidity % | barometer mb |
| 20260506224304 | 64 | 107 | 0.0 | 0.0 | 0.00 | 0.00 | 0.00 | 71 | 1011.3 |
| 20260506223804 | 64 | 107 | 0.0 | 0.0 | 0.00 | 0.00 | 0.00 | 71 | 1011.3 |
| 20260506223304 | 64 | 107 | 0.0 | 0.0 | 0.00 | 0.00 | 0.00 | 71 | 1011.3 |
| 20260506222804 | 64 | 107 | 0.0 | 0.0 | 0.00 | 0.00 | 0.00 | 71 | 1011.4 |
| 20260506221804 | 64 | 107 | 0.0 | 0.0 | 0.00 | 0.00 | 0.00 | 70 | 1011.3 |
| 20260506221304 | 64 | 107 | 0.0 | 0.0 | 0.00 | 0.00 | 0.00 | 69 | 1011.3 |
| 20260506220818 | 65 | 107 | 0.0 | 0.0 | 0.00 | 0.00 | 0.00 | 68 | 1011.3 |
| 20260506215306 | 65 | 107 | 1.7 | 2.6 | 0.00 | 0.00 | 0.00 | 68 | 1011.3 |
| 20260506214804 | 65 | 107 | 0.0 | 4.3 | 0.00 | 0.00 | 0.00 | 68 | 1011.3 |
| 20260506214304 | 65 | 108 | 0.9 | 1.7 | 0.00 | 0.00 | 0.00 | 68 | 1011.4 |
| 20260506213804 | 65 | 108 | 1.7 | 2.6 | 0.00 | 0.00 | 0.00 | 68 | 1011.4 |
| 20260506213304 | 65 | 107 | 1.7 | 4.3 | 0.00 | 0.00 | 0.00 | 68 | 1011.4 |
| 20260506212804 | 65 | 94 | 1.7 | 5.2 | 0.00 | 0.00 | 0.00 | 67 | 1011.3 |
| 20260506212306 | 65 | 96 | 0.9 | 4.3 | 0.00 | 0.00 | 0.00 | 68 | 1011.3 |
| 20260506210804 | 65 | 95 | 2.6 | 4.3 | 0.00 | 0.00 | 0.00 | 67 | 1011.1 |
| 20260506210303 | 65 | 96 | 0.9 | 5.2 | 0.00 | 0.00 | 0.00 | 67 | 1011.0 |
| 20260506205804 | 65 | 96 | 3.5 | 6.1 | 0.00 | 0.00 | 0.00 | 67 | 1010.9 |
| 20260506205306 | 65 | 109 | 2.6 | 6.1 | 0.00 | 0.00 | 0.00 | 67 | 1010.9 |
| 20260506204803 | 65 | 89 | 3.5 | 6.1 | 0.00 | 0.00 | 0.00 | 67 | 1010.9 |
| 20260506203804 | 65 | 89 | 1.7 | 6.1 | 0.00 | 0.00 | 0.00 | 67 | 1010.7 |
| 20260506203303 | 65 | 107 | 4.3 | 7.0 | 0.00 | 0.00 | 0.00 | 67 | 1010.7 |
| 20260506202804 | 65 | 102 | 3.5 | 7.0 | 0.00 | 0.00 | 0.00 | 67 | 1010.7 |
| 20260506202306 | 65 | 89 | 3.5 | 5.2 | 0.00 | 0.00 | 0.00 | 67 | 1010.7 |
| 20260506201803 | 65 | 112 | 1.7 | 6.1 | 0.00 | 0.00 | 0.00 | 68 | 1010.6 |
| 20260506201304 | 65 | 83 | 4.3 | 6.1 | 0.00 | 0.00 | 0.00 | 67 | 1010.6 |
| 20260506200804 | 65 | 100 | 4.3 | 7.0 | 0.00 | 0.00 | 0.00 | 67 | 1010.5 |
| 20260506200304 | 66 | 103 | 2.6 | 5.2 | 0.00 | 0.00 | 0.00 | 68 | 1010.4 |
| 20260506195803 | 66 | 114 | 2.6 | 5.2 | 0.00 | 0.00 | 0.00 | 68 | 1010.3 |
| 20260506195306 | 66 | 99 | 2.6 | 7.0 | 0.00 | 0.00 | 0.00 | 68 | 1010.3 |
| 20260506194804 | 66 | 96 | 3.5 | 6.1 | 0.00 | 0.00 | 0.00 | 68 | 1010.2 |
| 20260506194303 | 66 | 115 | 3.5 | 5.2 | 0.00 | 0.00 | 0.00 | 67 | 1010.2 |
| 20260506193304 | 66 | 100 | 4.3 | 6.1 | 0.00 | 0.00 | 0.00 | 66 | 1010.1 |
| 20260506192803 | 66 | 107 | 3.5 | 6.1 | 0.00 | 0.00 | 0.00 | 66 | 1009.9 |
| 20260506192306 | 67 | 87 | 4.3 | 7.8 | 0.00 | 0.00 | 0.00 | 66 | 1010.0 |
| 20260506191804 | 67 | 117 | 2.6 | 5.2 | 0.00 | 0.00 | 0.00 | 66 | 1009.9 |
| 20260506191303 | 67 | 117 | 3.5 | 5.2 | 0.00 | 0.00 | 0.00 | 66 | 1009.8 |
| 20260506190804 | 67 | 125 | 2.6 | 7.0 | 0.00 | 0.00 | 0.00 | 66 | 1009.8 |
| 20260506190303 | 67 | 135 | 2.6 | 6.1 | 0.00 | 0.00 | 0.00 | 66 | 1009.8 |
| 20260506185804 | 67 | 124 | 5.2 | 7.8 | 0.00 | 0.00 | 0.00 | 66 | 1009.7 |
| 20260506185306 | 67 | 134 | 5.2 | 7.8 | 0.00 | 0.00 | 0.00 | 66 | 1009.6 |
| 20260506184804 | 67 | 119 | 5.2 | 7.8 | 0.00 | 0.00 | 0.00 | 65 | 1009.5 |
| 20260506184304 | 67 | 119 | 3.5 | 7.8 | 0.00 | 0.00 | 0.00 | 65 | 1009.6 |
| 20260506183803 | 67 | 114 | 5.2 | 7.8 | 0.00 | 0.00 | 0.00 | 65 | 1009.5 |
| 20260506183304 | 67 | 113 | 4.3 | 7.0 | 0.00 | 0.00 | 0.00 | 64 | 1009.5 |
| 20260506182804 | 67 | 126 | 5.2 | 10.4 | 0.00 | 0.00 | 0.00 | 64 | 1009.5 |
| 20260506182306 | 68 | 118 | 5.2 | 10.4 | 0.00 | 0.00 | 0.00 | 63 | 1009.4 |
| 20260506181804 | 68 | 120 | 5.2 | 7.8 | 0.00 | 0.00 | 0.00 | 63 | 1009.5 |
| 20260506181304 | 68 | 122 | 3.5 | 7.0 | 0.00 | 0.00 | 0.00 | 64 | 1009.4 |
| 20260506180804 | 68 | 119 | 6.1 | 10.4 | 0.00 | 0.00 | 0.00 | 63 | 1009.5 |
| 20260506180303 | 68 | 127 | 6.1 | 10.4 | 0.00 | 0.00 | 0.00 | 63 | 1009.5 |
| 20260506175803 | 68 | 99 | 5.2 | 11.3 | 0.00 | 0.00 | 0.00 | 63 | 1009.4 |
| 20260506175306 | 68 | 69 | 5.2 | 10.4 | 0.00 | 0.00 | 0.00 | 63 | 1009.4 |
| 20260506174803 | 68 | 105 | 6.1 | 10.4 | 0.00 | 0.00 | 0.00 | 63 | 1009.5 |
| 20260506174305 | 68 | 101 | 6.1 | 11.3 | 0.00 | 0.00 | 0.00 | 62 | 1009.6 |
| 20260506173304 | 69 | 112 | 4.3 | 7.8 | 0.00 | 0.00 | 0.00 | 62 | 1009.7 |
| 20260506172806 | 69 | 109 | 3.5 | 10.4 | 0.00 | 0.00 | 0.00 | 63 | 1009.7 |
| 20260506172307 | 69 | 90 | 5.2 | 7.8 | 0.00 | 0.00 | 0.00 | 62 | 1009.7 |
| 20260506170805 | 69 | 119 | 4.3 | 11.3 | 0.00 | 0.00 | 0.00 | 61 | 1009.7 |
| 20260506170305 | 69 | 75 | 5.2 | 11.3 | 0.00 | 0.00 | 0.00 | 61 | 1009.6 |
| 20260506165804 | 69 | 59 | 5.2 | 10.4 | 0.00 | 0.00 | 0.00 | 62 | 1009.7 |
| 20260506165306 | 69 | 87 | 6.1 | 10.4 | 0.00 | 0.00 | 0.00 | 61 | 1009.6 |
| 20260506164804 | 69 | 127 | 6.1 | 11.3 | 0.00 | 0.00 | 0.00 | 61 | 1009.5 |
| 20260506164304 | 70 | 103 | 6.1 | 12.2 | 0.00 | 0.00 | 0.00 | 61 | 1009.6 |
| 20260506163304 | 70 | 111 | 8.7 | 13.0 | 0.00 | 0.00 | 0.00 | 59 | 1009.6 |
| 20260506162804 | 70 | 78 | 6.1 | 11.3 | 0.00 | 0.00 | 0.00 | 59 | 1009.6 |
| 20260506162307 | 71 | 85 | 6.1 | 12.2 | 0.00 | 0.00 | 0.00 | 59 | 1009.5 |
| 20260506161805 | 71 | 101 | 4.3 | 13.0 | 0.00 | 0.00 | 0.00 | 58 | 1009.4 |
| 20260506161304 | 70 | 117 | 5.2 | 11.3 | 0.00 | 0.00 | 0.00 | 59 | 1009.4 |
| 20260506160804 | 70 | 114 | 6.1 | 12.2 | 0.00 | 0.00 | 0.00 | 58 | 1009.4 |
| 20260506155306 | 71 | 53 | 7.0 | 13.0 | 0.00 | 0.00 | 0.00 | 58 | 1009.5 |
| 20260506154305 | 71 | 82 | 7.0 | 10.4 | 0.00 | 0.00 | 0.00 | 58 | 1009.5 |
| 20260506152306 | 71 | 123 | 7.8 | 10.4 | 0.00 | 0.00 | 0.00 | 58 | 1009.5 |
| 20260506151304 | 71 | 84 | 7.0 | 13.0 | 0.00 | 0.00 | 0.00 | 57 | 1009.4 |
| 20260506150805 | 71 | 72 | 7.8 | 12.2 | 0.00 | 0.00 | 0.00 | 58 | 1009.4 |
| 20260506150305 | 71 | 108 | 6.1 | 10.4 | 0.00 | 0.00 | 0.00 | 58 | 1009.4 |
| 20260506145805 | 71 | 104 | 7.8 | 11.3 | 0.00 | 0.00 | 0.00 | 58 | 1009.5 |
| 20260506145306 | 72 | 89 | 8.7 | 15.6 | 0.00 | 0.00 | 0.00 | 56 | 1009.5 |
| 20260506144305 | 72 | 126 | 8.7 | 13.0 | 0.00 | 0.00 | 0.00 | 56 | 1009.5 |
| 20260506143804 | 73 | 142 | 7.0 | 13.0 | 0.00 | 0.00 | 0.00 | 55 | 1009.6 |
| 20260506143305 | 73 | 64 | 8.7 | 13.9 | 0.00 | 0.00 | 0.00 | 54 | 1009.8 |
| 20260506142804 | 74 | 26 | 8.7 | 18.2 | 0.00 | 0.00 | 0.00 | 54 | 1009.7 |
| 20260506141804 | 74 | 104 | 7.8 | 13.9 | 0.00 | 0.00 | 0.00 | 55 | 1009.8 |
| 20260506141304 | 73 | 85 | 7.8 | 11.3 | 0.00 | 0.00 | 0.00 | 55 | 1009.9 |
| 20260506140805 | 73 | 100 | 8.7 | 14.8 | 0.00 | 0.00 | 0.00 | 54 | 1009.9 |
| 20260506140304 | 74 | 44 | 10.4 | 15.6 | 0.00 | 0.00 | 0.00 | 53 | 1009.9 |
| 20260506135805 | 74 | 102 | 7.8 | 13.0 | 0.00 | 0.00 | 0.00 | 54 | 1009.9 |
| 20260506135306 | 74 | 29 | 7.8 | 13.9 | 0.00 | 0.00 | 0.00 | 53 | 1009.9 |
| 20260506134805 | 74 | 74 | 7.0 | 13.9 | 0.00 | 0.00 | 0.00 | 53 | 1009.9 |
| 20260506133804 | 73 | 107 | 8.7 | 15.6 | 0.00 | 0.00 | 0.00 | 55 | 1009.9 |
| 20260506133305 | 74 | 65 | 5.2 | 14.8 | 0.00 | 0.00 | 0.00 | 53 | 1010.0 |
| 20260506132805 | 75 | 44 | 6.1 | 11.3 | 0.00 | 0.00 | 0.00 | 53 | 1010.0 |
| 20260506132307 | 75 | 76 | 7.0 | 12.2 | 0.00 | 0.00 | 0.00 | 54 | 1010.0 |
| 20260506131805 | 74 | 71 | 7.8 | 13.9 | 0.00 | 0.00 | 0.00 | 54 | 1010.0 |
| 20260506131304 | 74 | 79 | 7.8 | 13.0 | 0.00 | 0.00 | 0.00 | 53 | 1010.0 |
| 20260506130805 | 74 | 92 | 8.7 | 17.4 | 0.00 | 0.00 | 0.00 | 52 | 1010.1 |
| 20260506130305 | 74 | 20 | 7.0 | 13.0 | 0.00 | 0.00 | 0.00 | 51 | 1010.1 |
| 20260506125804 | 74 | 64 | 7.8 | 13.0 | 0.00 | 0.00 | 0.00 | 52 | 1010.2 |
| 20260506125305 | 74 | 47 | 7.8 | 12.2 | 0.00 | 0.00 | 0.00 | 52 | 1010.2 |
| 20260506124804 | 73 | 56 | 8.7 | 15.6 | 0.00 | 0.00 | 0.00 | 52 | 1010.3 |
| 20260506124305 | 74 | 69 | 7.8 | 13.9 | 0.00 | 0.00 | 0.00 | 48 | 1010.3 |
| 20260506123804 | 74 | 85 | 6.1 | 10.4 | 0.00 | 0.00 | 0.00 | 48 | 1010.3 |
| 20260506123304 | 75 | 70 | 7.0 | 13.0 | 0.00 | 0.00 | 0.00 | 48 | 1010.4 |
| 20260506122804 | 75 | 46 | 7.0 | 12.2 | 0.00 | 0.00 | 0.00 | 51 | 1010.4 |
| 20260506122306 | 74 | 106 | 5.2 | 10.4 | 0.00 | 0.00 | 0.00 | 51 | 1010.4 |
| 20260506121804 | 74 | 40 | 5.2 | 13.0 | 0.00 | 0.00 | 0.00 | 49 | 1010.4 |
| 20260506121305 | 74 | 35 | 6.1 | 11.3 | 0.00 | 0.00 | 0.00 | 48 | 1010.4 |
| 20260506120804 | 74 | 25 | 5.2 | 11.3 | 0.00 | 0.00 | 0.00 | 48 | 1010.5 |
| 20260506120304 | 74 | 77 | 6.1 | 11.3 | 0.00 | 0.00 | 0.00 | 50 | 1010.5 |
| 20260506115804 | 74 | 31 | 7.8 | 11.3 | 0.00 | 0.00 | 0.00 | 50 | 1010.5 |
| 20260506115307 | 74 | 84 | 5.2 | 8.7 | 0.00 | 0.00 | 0.00 | 51 | 1010.5 |
| 20260506114805 | 74 | 39 | 6.1 | 12.2 | 0.00 | 0.00 | 0.00 | 51 | 1010.6 |
| 20260506114304 | 74 | 107 | 7.8 | 13.9 | 0.00 | 0.00 | 0.00 | 51 | 1010.6 |
| 20260506113304 | 74 | 41 | 6.1 | 10.4 | 0.00 | 0.00 | 0.00 | 51 | 1010.7 |
| 20260506112804 | 74 | 125 | 6.1 | 12.2 | 0.00 | 0.00 | 0.00 | 52 | 1010.7 |
| 20260506111804 | 73 | 83 | 5.2 | 11.3 | 0.00 | 0.00 | 0.00 | 52 | 1010.9 |
| 20260506111304 | 74 | 94 | 5.2 | 11.3 | 0.00 | 0.00 | 0.00 | 54 | 1010.8 |
| 20260506110804 | 74 | 36 | 5.2 | 10.4 | 0.00 | 0.00 | 0.00 | 53 | 1010.8 |
| 20260506110305 | 74 | 128 | 5.2 | 11.3 | 0.00 | 0.00 | 0.00 | 52 | 1010.9 |
| 20260506105804 | 73 | 112 | 5.2 | 13.0 | 0.00 | 0.00 | 0.00 | 52 | 1010.9 |
| 20260506105305 | 72 | 43 | 4.3 | 12.2 | 0.00 | 0.00 | 0.00 | 54 | 1010.9 |
| 20260506104805 | 73 | 74 | 4.3 | 10.4 | 0.00 | 0.00 | 0.00 | 54 | 1010.9 |
| 20260506104305 | 72 | 43 | 6.1 | 10.4 | 0.00 | 0.00 | 0.00 | 55 | 1011.0 |
| 20260506103805 | 72 | 71 | 4.3 | 7.8 | 0.00 | 0.00 | 0.00 | 57 | 1011.0 |
| 20260506103304 | 71 | 53 | 5.2 | 10.4 | 0.00 | 0.00 | 0.00 | 58 | 1011.0 |
| 20260506102805 | 71 | 108 | 3.5 | 10.4 | 0.00 | 0.00 | 0.00 | 56 | 1011.1 |
| 20260506101804 | 72 | 111 | 6.1 | 10.4 | 0.00 | 0.00 | 0.00 | 56 | 1011.2 |
| 20260506101305 | 71 | 81 | 3.5 | 10.4 | 0.00 | 0.00 | 0.00 | 56 | 1011.2 |
| 20260506100804 | 71 | 81 | 5.2 | 7.8 | 0.00 | 0.00 | 0.00 | 56 | 1011.2 |
| 20260506100305 | 71 | 71 | 2.6 | 7.0 | 0.00 | 0.00 | 0.00 | 56 | 1011.2 |
| 20260506094805 | 71 | 101 | 1.7 | 5.2 | 0.00 | 0.00 | 0.00 | 57 | 1011.2 |
| 20260506094305 | 70 | 113 | 2.6 | 6.1 | 0.00 | 0.00 | 0.00 | 58 | 1011.2 |
| 20260506093805 | 70 | 148 | 2.6 | 7.0 | 0.00 | 0.00 | 0.00 | 57 | 1011.1 |
| 20260506093304 | 71 | 149 | 1.7 | 8.7 | 0.00 | 0.00 | 0.00 | 56 | 1011.1 |
| 20260506092804 | 71 | 145 | 2.6 | 7.8 | 0.00 | 0.00 | 0.00 | 56 | 1011.1 |
| 20260506092306 | 70 | 93 | 3.5 | 7.0 | 0.00 | 0.00 | 0.00 | 57 | 1011.0 |
| 20260506091805 | 70 | 107 | 2.6 | 6.1 | 0.00 | 0.00 | 0.00 | 58 | 1011.0 |
| 20260506091304 | 70 | 121 | 2.6 | 6.1 | 0.00 | 0.00 | 0.00 | 59 | 1011.0 |
| 20260506090804 | 69 | 96 | 2.6 | 7.0 | 0.00 | 0.00 | 0.00 | 58 | 1011.0 |
| 20260506085804 | 70 | 78 | 2.6 | 5.2 | 0.00 | 0.00 | 0.00 | 58 | 1010.9 |
| 20260506085306 | 70 | 100 | 2.6 | 7.0 | 0.00 | 0.00 | 0.00 | 58 | 1010.9 |
| 20260506084804 | 70 | 103 | 2.6 | 7.0 | 0.00 | 0.00 | 0.00 | 59 | 1010.9 |
| 20260506084304 | 69 | 118 | 4.3 | 10.4 | 0.00 | 0.00 | 0.00 | 59 | 1011.0 |
| 20260506083804 | 69 | 98 | 2.6 | 5.2 | 0.00 | 0.00 | 0.00 | 59 | 1011.0 |
| 20260506083305 | 69 | 96 | 2.6 | 4.3 | 0.00 | 0.00 | 0.00 | 59 | 1011.0 |
| 20260506082805 | 69 | 85 | 1.7 | 4.3 | 0.00 | 0.00 | 0.00 | 60 | 1011.0 |
| 20260506081304 | 68 | 58 | 2.6 | 5.2 | 0.00 | 0.00 | 0.00 | 62 | 1011.0 |
| 20260506080804 | 68 | 74 | 1.7 | 4.3 | 0.00 | 0.00 | 0.00 | 64 | 1010.9 |
| 20260506080304 | 67 | 336 | 1.7 | 2.6 | 0.00 | 0.00 | 0.00 | 63 | 1010.9 |
| 20260506072804 | 65 | 336 | 1.7 | 2.6 | 0.00 | 0.00 | 0.00 | 69 | 1010.9 |
| 20260506072305 | 65 | 324 | 1.7 | 5.2 | 0.00 | 0.00 | 0.00 | 69 | 1011.0 |
| 20260506071805 | 64 | 313 | 1.7 | 2.6 | 0.00 | 0.00 | 0.00 | 71 | 1011.0 |
| 20260506071304 | 64 | 315 | 1.7 | 2.6 | 0.00 | 0.00 | 0.00 | 72 | 1011.0 |
| 20260506070804 | 63 | 314 | 1.7 | 2.6 | 0.00 | 0.00 | 0.00 | 73 | 1011.0 |
| 20260506062305 | 61 | 59 | 0.9 | 4.3 | 0.00 | 0.00 | 0.00 | 76 | 1010.9 |
| 20260506061804 | 61 | 59 | 0.0 | 1.7 | 0.00 | 0.00 | 0.00 | 76 | 1010.9 |
| 20260506060805 | 61 | 59 | 0.0 | 1.7 | 0.00 | 0.00 | 0.00 | 77 | 1010.8 |
| 20260506060304 | 61 | 59 | 0.0 | 1.7 | 0.00 | 0.00 | 0.00 | 77 | 1010.8 |
| 20260506051304 | 60 | 59 | 0.0 | 1.7 | 0.00 | 0.00 | 0.00 | 81 | 1010.4 |
| 20260506050805 | 60 | 59 | 0.0 | 0.0 | 0.00 | 0.00 | 0.00 | 81 | 1010.4 |
| 20260506050304 | 60 | 59 | 0.0 | 0.0 | 0.00 | 0.00 | 0.00 | 81 | 1010.3 |
| 20260506044804 | 61 | 61 | 0.0 | 1.7 | 0.00 | 0.00 | 0.00 | 79 | 1010.2 |
| 20260506044304 | 61 | 61 | 0.0 | 0.9 | 0.00 | 0.00 | 0.00 | 79 | 1010.1 |
| 20260506043804 | 61 | 61 | 0.0 | 1.7 | 0.00 | 0.00 | 0.00 | 78 | 1010.2 |
| 20260506043304 | 61 | 61 | 0.0 | 2.6 | 0.00 | 0.00 | 0.00 | 78 | 1010.1 |
| 20260506042305 | 61 | 61 | 0.0 | 0.0 | 0.00 | 0.00 | 0.00 | 78 | 1010.1 |
| 20260506041804 | 61 | 61 | 0.0 | 0.9 | 0.00 | 0.00 | 0.00 | 78 | 1010.1 |
| 20260506041304 | 61 | 61 | 0.9 | 4.3 | 0.00 | 0.00 | 0.00 | 77 | 1010.1 |
| 20260506040304 | 61 | 61 | 1.7 | 2.6 | 0.00 | 0.00 | 0.00 | 77 | 1010.1 |
| 20260506035804 | 61 | 61 | 0.9 | 1.7 | 0.00 | 0.00 | 0.00 | 78 | 1010.1 |
| 20260506035306 | 61 | 61 | 0.9 | 1.7 | 0.00 | 0.00 | 0.00 | 78 | 1010.1 |
| 20260506034804 | 61 | 61 | 0.0 | 1.7 | 0.00 | 0.00 | 0.00 | 78 | 1010.1 |
| 20260506034305 | 61 | 61 | 0.0 | 0.9 | 0.00 | 0.00 | 0.00 | 78 | 1010.1 |
| 20260506033304 | 61 | 61 | 0.0 | 0.0 | 0.00 | 0.00 | 0.00 | 78 | 1010.1 |
| 20260506032804 | 61 | 61 | 0.0 | 0.0 | 0.00 | 0.00 | 0.00 | 78 | 1010.2 |
| 20260506032306 | 61 | 61 | 0.9 | 1.7 | 0.00 | 0.00 | 0.00 | 78 | 1010.1 |
| 20260506031804 | 61 | 61 | 0.9 | 1.7 | 0.00 | 0.00 | 0.00 | 77 | 1010.1 |
| 20260506031304 | 61 | 61 | 0.0 | 0.9 | 0.00 | 0.00 | 0.00 | 78 | 1010.1 |
| 20260506030803 | 61 | 61 | 0.9 | 1.7 | 0.00 | 0.00 | 0.00 | 77 | 1010.1 |
| 20260506025804 | 62 | 61 | 0.0 | 0.9 | 0.00 | 0.00 | 0.00 | 77 | 1010.1 |
| 20260506024304 | 62 | 61 | 0.0 | 0.0 | 0.00 | 0.00 | 0.00 | 76 | 1010.2 |
| 20260506023804 | 62 | 61 | 0.0 | 2.6 | 0.00 | 0.00 | 0.00 | 76 | 1010.2 |
| 20260506023304 | 62 | 62 | 0.9 | 1.7 | 0.00 | 0.00 | 0.00 | 75 | 1010.2 |
| 20260506022804 | 62 | 61 | 0.0 | 0.0 | 0.00 | 0.00 | 0.00 | 76 | 1010.2 |
| 20260506022306 | 62 | 61 | 0.0 | 1.7 | 0.00 | 0.00 | 0.00 | 75 | 1010.2 |
| 20260506021804 | 62 | 61 | 0.0 | 1.7 | 0.00 | 0.00 | 0.00 | 76 | 1010.2 |
| 20260506021304 | 62 | 61 | 0.9 | 1.7 | 0.00 | 0.00 | 0.00 | 75 | 1010.2 |
| 20260506020805 | 62 | 61 | 0.0 | 1.7 | 0.00 | 0.00 | 0.00 | 75 | 1010.2 |
| 20260506015804 | 63 | 61 | 0.9 | 1.7 | 0.00 | 0.00 | 0.00 | 75 | 1010.1 |
| 20260506015306 | 63 | 61 | 0.9 | 1.7 | 0.00 | 0.00 | 0.00 | 76 | 1010.1 |
| 20260506014804 | 63 | 61 | 0.9 | 2.6 | 0.00 | 0.00 | 0.00 | 76 | 1010.1 |
| 20260506014304 | 63 | 61 | 0.9 | 2.6 | 0.00 | 0.00 | 0.00 | 76 | 1010.1 |
| 20260506013803 | 62 | 56 | 0.9 | 2.6 | 0.00 | 0.00 | 0.00 | 77 | 1010.1 |
| 20260506011804 | 62 | 61 | 1.7 | 4.3 | 0.00 | 0.00 | 0.00 | 77 | 1010.3 |
| 20260506011304 | 62 | 61 | 1.7 | 2.6 | 0.00 | 0.00 | 0.00 | 78 | 1010.2 |
| 20260506010804 | 62 | 61 | 1.7 | 2.6 | 0.00 | 0.00 | 0.00 | 78 | 1010.2 |
| 20260506010304 | 62 | 61 | 1.7 | 2.6 | 0.00 | 0.00 | 0.00 | 78 | 1010.2 |
| 20260506005306 | 63 | 61 | 0.9 | 2.6 | 0.00 | 0.00 | 0.00 | 77 | 1010.2 |
| 20260506004805 | 63 | 61 | 0.9 | 1.7 | 0.00 | 0.00 | 0.00 | 77 | 1010.3 |
| 20260506004304 | 63 | 61 | 0.9 | 2.6 | 0.00 | 0.00 | 0.00 | 76 | 1010.3 |
| 20260506003804 | 64 | 61 | 0.9 | 2.6 | 0.00 | 0.00 | 0.00 | 75 | 1010.4 |
| 20260506003304 | 64 | 61 | 0.9 | 2.6 | 0.00 | 0.00 | 0.00 | 75 | 1010.4 |
| 20260506002804 | 65 | 52 | 1.7 | 2.6 | 0.00 | 0.00 | 0.00 | 74 | 1010.5 |
| 20260506002306 | 65 | 60 | 0.9 | 1.7 | 0.00 | 0.00 | 0.00 | 74 | 1010.5 |
| 20260506001803 | 65 | 60 | 0.9 | 1.7 | 0.00 | 0.00 | 0.00 | 74 | 1010.5 |
| 20260506001304 | 65 | 61 | 0.9 | 2.6 | 0.00 | 0.00 | 0.00 | 73 | 1010.5 |
| 20260506000804 | 65 | 61 | 0.0 | 0.0 | 0.00 | 0.00 | 0.00 | 73 | 1010.6 |
| 20260505235804 | 66 | 61 | 1.7 | 2.6 | 0.00 | 0.00 | 0.00 | 73 | 1010.6 |
| 20260505235305 | 66 | 61 | 1.7 | 2.6 | 0.00 | 0.00 | 0.00 | 73 | 1010.6 |
| 20260505234304 | 66 | 61 | 1.7 | 2.6 | 0.00 | 0.00 | 0.00 | 73 | 1010.6 |
| 20260505233804 | 66 | 61 | 0.9 | 2.6 | 0.00 | 0.00 | 0.00 | 73 | 1010.6 |
| 20260505233304 | 66 | 56 | 2.6 | 4.3 | 0.00 | 0.00 | 0.00 | 73 | 1010.6 |
| 20260505232804 | 66 | 53 | 2.6 | 5.2 | 0.00 | 0.00 | 0.00 | 73 | 1010.5 |
| 20260505231304 | 66 | 53 | 1.7 | 6.1 | 0.00 | 0.00 | 0.00 | 72 | 1010.5 |
| 20260505230304 | 66 | 49 | 3.5 | 7.8 | 0.00 | 0.00 | 0.00 | 72 | 1010.4 |
| 20260505225804 | 66 | 55 | 4.3 | 8.7 | 0.00 | 0.00 | 0.00 | 72 | 1010.5 |
| 20260505225306 | 66 | 30 | 3.5 | 7.8 | 0.00 | 0.00 | 0.00 | 71 | 1010.5 |
| 20260505224803 | 66 | 26 | 4.3 | 10.4 | 0.00 | 0.00 | 0.00 | 71 | 1010.6 |